Location: Rumah Dana
(3.1167°N, 113.0167°E)
Time: 04:06:08
(UTC+00:00)

ARIANE 5 DEB (SYLDA) - Pass Details

Date: 20 January 2026
Orbit: 153 x 1531 km, 6.2° (Epoch: 24 January)

Event Time Altitude Azimuth Distance (km) Brightness Sun altitude
Rises 11:40:18 0° 269° (W) 2,702 7.8 -15.5°
Reaches altitude 10° 11:42:08 10° 270° (W) 2,013 6.8 -15.9°
Maximum altitude 11:46:58 79° 356° (N) 901 3.8 -17.0°
Enters shadow 11:51:18 27° 80° (E) 1,999 5.0 -18.0°
